Flag for Luxembourg Weather past 2 weeks in Luxembourg, Luxembourg

Now
59 °F

Clear.


Feels Like: 59 °F
Forecast: 54 / 76 °F
Wind: 2 mph from North

Location: Luxembourg Airport

Current Time: Jul 31, 2014 at 1:18:19 AM

Latest Report: Jul 31, 2014 at 12:50 AM


Visibility: 10 mi

Pressure: 30.01 "Hg

Humidity: 88%

Dew point: 55 °F

Location of LuxembourgLocation

Historic Weather in Luxembourg — Graph

°F

Luxembourg temperature yesterday

Maximum temperature yesterday: 73 °F (at 5:20 PM)
Minimum temperature yesterday: 61 °F (at 11:50 PM)
Average temperature yesterday: 66 °F

Past Weeks' High & Low Weather Summary

 TemperatureHumidityPressure
High90 °F (Jul 18, 3:50 PM)100% (Jul 22, 5:50 AM)30.21 "Hg (Jul 22, 5:50 AM)
Low59 °F (Jul 25, 4:50 AM)29% (Jul 19, 2:20 PM)29.80 "Hg (Jul 29, 7:20 AM)
Average70 °F68%29.97 "Hg
* Reported Jul 15 11:20 PM — Jul 30 11:50 PM, Luxembourg, Weather by CustomWeather, © 2014

Note: Actual official high and low records may vary slightly from our data, if they occured in-between our weather recording intervals... More about our weather records

Advertising

Luxembourg weather history for previous 24 hours

 ConditionsComfort  
Time TempWeatherWind HumidityBarometerVisibility
11:50 PM
Jul 30
61 °FClear.3 mph83%30.01 "Hg10 mi
11:20 PM63 °FClear.3 mph77%30.01 "Hg10 mi
10:50 PM63 °FClear.3 mph77%30.01 "Hg10 mi
10:20 PM63 °FClear.6 mph77%30.01 "Hg10 mi
9:50 PM63 °FPassing clouds.7 mph77%30.01 "HgN/A
9:20 PM64 °FPassing clouds.6 mph73%29.98 "HgN/A
8:50 PM68 °FSunny.5 mph64%29.98 "Hg10 mi
8:20 PM70 °FPassing clouds.8 mph60%29.98 "HgN/A
7:50 PM70 °FPassing clouds.7 mph64%29.95 "HgN/A
7:20 PM70 °FPassing clouds.10 mph64%29.95 "HgN/A
6:50 PM70 °FPassing clouds.6 mph60%29.95 "HgN/A
6:20 PM72 °FSunny.7 mph53%29.95 "Hg10 mi
5:50 PM73 °FPassing clouds.8 mph50%29.95 "HgN/A
5:20 PM73 °FScattered clouds.8 mph50%29.95 "HgN/A
4:50 PM72 °FScattered clouds.8 mph57%29.95 "HgN/A
4:20 PM72 °FScattered clouds.10 mph57%29.95 "HgN/A
3:50 PM72 °FScattered clouds.9 mph53%29.95 "HgN/A
3:20 PM72 °FScattered clouds.10 mph57%29.95 "HgN/A
2:50 PM70 °FScattered clouds.8 mph60%29.95 "HgN/A
2:20 PM72 °FScattered clouds.10 mph61%29.95 "HgN/A
1:50 PM72 °FScattered clouds.10 mph61%29.95 "HgN/A
1:20 PM70 °FScattered clouds.10 mph64%29.95 "HgN/A
12:50 PM68 °FScattered clouds.9 mph73%29.95 "HgN/A
12:20 PM66 °FBroken clouds.9 mph78%29.92 "HgN/A
11:50 AM66 °FScattered clouds.13 mph78%29.92 "HgN/A
11:20 AM64 °FBroken clouds.10 mph88%29.92 "HgN/A
10:50 AM64 °FBroken clouds.9 mph88%29.89 "HgN/A
10:20 AM64 °FScattered clouds.10 mph83%29.89 "HgN/A
9:50 AM64 °FScattered clouds.12 mph88%29.89 "HgN/A
9:20 AM63 °FPartly sunny.9 mph88%29.89 "HgN/A
8:50 AM63 °FPartly sunny.12 mph88%29.89 "Hg6 mi
8:20 AM63 °FPartly sunny.9 mph94%29.86 "Hg6 mi
7:50 AM63 °FPartly sunny.12 mph94%29.86 "Hg5 mi
7:20 AM63 °FScattered clouds.10 mph94%29.86 "Hg5 mi
6:50 AM64 °FPassing clouds.10 mph94%29.86 "Hg5 mi
6:20 AM63 °FPassing clouds.8 mph100%29.83 "Hg5 mi
5:50 AM63 °FLight rain. Passing clouds.7 mph100%29.83 "Hg4 mi
5:20 AM63 °FLight rain. Partly cloudy.7 mph100%29.83 "Hg5 mi
4:50 AM63 °FRain. Partly cloudy.8 mph100%29.83 "Hg5 mi
4:20 AM63 °FMild.7 mph100%29.83 "HgN/A
3:50 AM63 °FMild.7 mph100%29.83 "HgN/A
3:20 AM63 °FMild.7 mph94%29.83 "HgN/A
2:50 AM63 °FMild.9 mph100%29.83 "HgN/A
2:20 AM64 °FMild.10 mph94%29.83 "HgN/A
1:50 AM64 °FLight rain. Passing clouds.9 mph94%29.83 "Hg4 mi
1:20 AM64 °FPassing clouds.9 mph94%29.83 "Hg4 mi
Weather by CustomWeather, © 2014

See weather overviewHow to use our weather pages